Content
SEND FEEDBACK

Daily
Averages
Monthly
Summary
United States of America

CHICAGO, ILLINOIS


Home > North America > United States > Illinois
Elevation: 674 feet     Latitude: 41 59N     Longitude: 087 54W

WEATHER
 
SELECT A DAY
Number of Records: 199,870;   Date Range: 7/8/95 - 12/27/14
 
SHARE

PRINT THIS DATA

[ ← Previous Day ]
WEATHER ALMANAC - OCTOBER 12, 2013
[ Next Day → ]
[ °C ]   °F
Weather ElementAverageHighLow
Temperature63.4 °F72 °F (10:52 am)48.9 °F (11:52 pm)
Dewpoint55.7 °F62.6 °F (3:30 pm)45 °F (8:52 pm)
Humidity76.4 %88 % (3:30 pm)60 % (8:52 pm)
Barometer30.03 in30.20 in (11:52 pm)29.98 in (2:52 am)
Wind Speed6.7 mph13.8 mph (10:52 am)
Wind Gust18.4 mph (1:08 pm)
Weather ElementAverage
Visibility7.8 mi
Wind DirectionSSE (173.2 °)

Weather ElementTotal
Precipitation0.11 in
Heating Degree Days4.6 (Base 65)
Growing Degree Days10.5 (Base 50)
Averaged from 31 records on October 12, 2013
WEATHER CONDITIONS BREAKOUT
WIND DIRECTION BREAKOUT
WEATHER BY HOUR - OCTOBER 12, 2013
[ °C ]   °F
Local TimeTemperatureDewpointHumidityBarometerVisibilityWind DirectionWind SpeedGust SpeedPrecipitationEventsConditions
1:52 AM57.0 °F48.9 °F74 %29.99 in10.0 miSSE (160°)5.8 mphClear
2:52 AM59.0 °F51.1 °F75 %29.98 in10.0 miSouth (170°)6.9 mphClear
3:52 AM57.0 °F50.0 °F77 %29.98 in10.0 miSouth (170°)5.8 mphClear
4:52 AM57.0 °F51.1 °F81 %29.98 in10.0 miSSE (160°)6.9 mphClear
5:52 AM57.9 °F51.1 °F78 %29.98 in10.0 miSSE (150°)6.9 mphClear
6:52 AM57.9 °F52.0 °F81 %29.99 in10.0 miSSE (160°)8.1 mphClear
7:52 AM60.1 °F53.1 °F78 %29.99 in9.0 miSSE (160°)6.9 mphClear
8:52 AM66.0 °F55.0 °F68 %30.00 in10.0 miSouth (180°)10.4 mphScattered Clouds
9:52 AM69.1 °F55.9 °F63 %29.99 in10.0 miSSE (160°)12.7 mphScattered Clouds
10:52 AM72.0 °F57.9 °F61 %29.99 in10.0 miSouth (170°)13.8 mphMostly Cloudy
11:52 AM71.1 °F57.0 °F61 %30.01 in10.0 miSSW (200°)10.4 mphOvercast
12:52 PM70.0 °F59.0 °F68 %30.00 in9.0 miSSW (200°)11.5 mph0.01 inOvercast
1:08 PM69.8 °F59.0 °F68 %30.00 in8.0 miSW (220°)10.4 mph18.4 mphOvercast
1:52 PM66.0 °F61.0 °F84 %30.01 in3.0 miSSW (210°)4.6 mph0.03 inRainLight Rain
1:56 PM66.2 °F60.8 °F83 %30.01 in3.0 miSSW (200°)5.8 mph0.01 inRain-ThunderstormLight Rain
2:10 PM66.2 °F60.8 °F83 %30.00 in5.0 miSouth (190°)8.1 mph0.01 inRain-ThunderstormLight Rain
2:18 PM66.2 °F60.8 °F83 %29.99 in6.0 miSouth (170°)9.2 mph0.01 inRainLight Rain
2:52 PM66.0 °F62.1 °F87 %30.00 in5.0 miSouth (190°)8.1 mph0.03 inRainLight Rain
3:30 PM66.2 °F62.6 °F88 %30.01 in4.0 miSSW (200°)6.9 mph0.00 inRainLight Rain
3:52 PM66.9 °F62.1 °F84 %30.01 in4.0 miSW (220°)5.8 mph0.01 inRainLight Rain
4:15 PM66.2 °F62.6 °F88 %30.01 in4.0 miSSW (210°)5.8 mph0.00 inOvercast
4:27 PM68.0 °F62.6 °F83 %30.01 in5.0 miSSW (210°)5.8 mph0.00 inHaze
4:52 PM68.0 °F62.1 °F81 %30.02 in5.0 miVariable6.9 mph0.00 inHaze
5:07 PM68.0 °F62.6 °F83 %30.03 in5.0 miSW (220°)5.8 mphHaze
5:52 PM68.0 °F61.0 °F78 %30.04 in6.0 miSW (230°)4.6 mphHaze
6:52 PM64.9 °F54.0 °F68 %30.06 in10.0 miWest (270°)3.5 mphClear
7:52 PM61.0 °F48.0 °F62 %30.09 in10.0 miWNW (290°)4.6 mphClear
8:52 PM59.0 °F45.0 °F60 %30.12 in10.0 miWNW (300°)5.8 mphClear
9:52 PM55.0 °F46.0 °F72 %30.15 in10.0 miCalmClear
10:52 PM51.1 °F46.0 °F83 %30.17 in10.0 miCalmClear
11:52 PM48.9 °F45.0 °F86 %30.20 in10.0 miCalmClear
Hourly data recorded from KPWK, located miles away from Chicago, Illinois







STORIES FROM OUR PARTNERS